DELTA 1 DEB, 40754

Orbit data source: Space-Track

DELTA 1 DEB, 40754 is space debris in SSO originally from a launch on Thu, 29 Jul 1976 UTC launched from the Air Force Western Test Range (AFWTR). Debris objects in space refer to the collection of defunct objects orbiting the Earth. Examples of debris include non-operational satellites, rocket bodies, and fragments generated from explosions, collisions, or faulty payload assembly.

Loading next visibility...
Identifier
40754, 1976-077FX
Orbit
SSO
Country
Flag of USUS
Related business
Manufacturer
Unknown
Mission
Spacecraft
Bus & Motor
Unknown
Mass
Unknown
Launch date (UTC)
1976-07-29 (50 years ago)
Launch vehicle
Unknown
Launch site
Air Force Western Test Range (AFWTR)
Object type
Payload
Rocket body
Debris
Shape & HBR
Unknown shape, 0.1 m
Radar Cross Section
Small (<0.1 m²)

Expand to show TLE details & history
Last TLE update: 4 days ago

TLE from 4 days ago
0 DELTA 1 DEB
1 40754U 76077FX  26115.34842683 -.00000004  00000-0  36851-3 0  9991
2 40754 102.5293  82.1694 0093003 207.2706 152.3445 12.25153968997330
Epoch: 2026-04-25T08:21Z
TLE epoch observation values (Epoch: 2026-04-25T08:21:44.078Z)
Latitude
-0.00003°
Longitude
103.36766°
Altitude
1,638.312 km
Speed
7.024 km/s
True Right ascension
05h 28m 40s
True Declination
0° 00' 00"
Sunlit
Object was in daylight at epoch
Visualization orbit readout
Latitude
Unknown
Longitude
Unknown
Altitude
Unknown
Speed
Unknown
Apparent Right ascension
Unknown
Apparent Declination
Unknown
Sunlit
N/A
Visualization observer readout
Local Sidereal Time
17:42:52
Azimuth
Unknown
Elevation
Unknown
Doppler factor
Unknown
Orbital elements
Apogee altitude
1,641.697 km
Perigee altitude
1,493.898 km
Semi-major axis
7,945.934 km
Eccentricity
0.0093
Inclination
102.5293°
RAAN
82.1694°
Arg. of periapsis
207.2706°
True anomaly
152.83412°
Mean anomaly
152.3445°
Eccentric anomaly
152.58981°
Mean motion
3.06426 °/min
Orbital period
117.48 mins
BSTAR
0.00036851
Loading maneuver chart data...
Computing Atmospheric mass density...
Loading historical data...
Loading historical data...
Loading historical data...
Loading historical data...
Loading historical data...
Loading historical data...
Loading historical data...

Documentation

Showing up to 5 results
|